Other Surface Observations
Issued by NWS Charleston, SC

Current Version | Previous Version | Text Only | Print | Product List | Glossary On
Versions: 1 2 3 4 5 6 7 8 9 10 11 12 13 14 15 16 17 18 19 20 21 22 23 24 25 26 27 28 29 30 31 32 33 34 35 36 37 38 39 40 41 42 43 44 45 46 47 48 49 50
000
SXUS52 KCHS 211425
OSOCHS

MARINE OBSERVATIONS
NATIONAL WEATHER SERVICE CHARLESTON SC
1000 AM EDT SUN SEP 21 2014

...DOWNTOWN CHARLESTON AND HARBOR...

CITY           SKY/WX    TMP DP  RH WIND       PRES   REMARKS
WATERFRONT PRK   N/A     75 N/A N/A NW8G15      N/A
FORT JOHNSON   NOT AVBL

...LAKE MOULTRIE...

CITY           SKY/WX    TMP DP  RH WIND       PRES   REMARKS
PINOPOLIS        N/A     73  64  73 NW9       29.90R

...LAKE AND SUPPLEMENTAL COASTAL OBSERVATIONS...

STATION/POSITION TIME  TEMP    WIND        PRES    WAVE   SWELL
                       AIR SEA DIR/SP/G            HT/PER HT/PER/DIR
                 (UTC) (F)     (DEG/KT/KT) (MB)    (FT/S) (FT/S/D)
FORT PULASKI     1400   73     310/  9/ 11 1016.3R
SAPELO ISLAND    1400   76     330/  6     1017.0R
UPR LAKE MARION  NOT AVBL
WINYAH BAY       1400   72     310/  7     1013.0S
LAKE MURRAY      1300   69     280/  3/  5 1014.9S
ACE BASIN NERRS  1400   71     290/  2     1016.0R


...C-MAN AND BUOY OBSERVATIONS...

STATION/POSITION TIME  TEMP    WIND        PRES    WAVE   SWELL
                       AIR SEA DIR/SP/G            HT/PER HT/PER/DIR
                 (UTC) (F)     (DEG/KT/KT) (MB)    (FT/S) (FT/S/D)
BUOY 41004       1400   74 81  320/ 17/ 21 1013.2R   6/ 7   3/ 8
BUOY 41008       1400   76 83  340/ 10/ 14 1016.1R   4/ 6   3/ 70/ 6
FOLLY BEACH CMAN 1400   75     330/  6/  9 1015.3R
CAPERS NS BUOY   1300   72     330/ 14/ 17   N/A
FRIPP NS BUOY    NOT AVBL
5E ST. MARYS GA  1400      83                N/A     4/ 9
FRYING PAN BUOY  NOT AVBL
BUOY 41025       1400   76     330/ 21/ 25 1005.7R   8/ 8   5/100/ 9
CAPE LOOKOUT NC  1400   73     330/ 18/ 20 1008.5R
BUOY 41002       1336   79 82  250/ 21/ 25 1009.5R  11/ 8
BUOY 41010       1400   80 84  310/  6/  8 1015.5R   4/ 8   3/ 10/ 8
BUOY 41012       NOT AVBL
ST AUGUSTINE FL  1400   76     330/  8/ 10 1017.5R


$$



USA.gov is the U.S. government's official web portal to all federal, state and local government web resources and services.